Year,Month,Day,Hour,Minute,Value (Times are PST for temperature in C)
2006,07,07,00,00,13.70
2006,07,07,00,01,13.70
2006,07,07,00,02,13.70
2006,07,07,00,03,13.70
2006,07,07,00,04,13.70
2006,07,07,00,05,13.70
2006,07,07,00,06,13.70
2006,07,07,00,07,13.70
2006,07,07,00,08,13.70
2006,07,07,00,09,13.70
2006,07,07,00,10,13.70
2006,07,07,00,11,13.70
2006,07,07,00,12,13.70
2006,07,07,00,13,13.70
2006,07,07,00,14,13.60
2006,07,07,00,15,13.60
2006,07,07,00,16,13.50
2006,07,07,00,17,13.50
2006,07,07,00,18,13.40
2006,07,07,00,19,13.40
2006,07,07,00,20,13.30
2006,07,07,00,21,13.30
2006,07,07,00,22,13.30
2006,07,07,00,23,13.30
2006,07,07,00,24,13.30
2006,07,07,00,25,13.30
2006,07,07,00,26,13.20
2006,07,07,00,27,13.10
2006,07,07,00,28,13.10
2006,07,07,00,29,13.00
2006,07,07,00,30,13.00
2006,07,07,00,31,12.90
2006,07,07,00,32,12.80
2006,07,07,00,33,12.80
2006,07,07,00,34,12.80
2006,07,07,00,35,12.80
2006,07,07,00,36,12.80
2006,07,07,00,37,12.80
2006,07,07,00,38,12.80
2006,07,07,00,39,12.80
2006,07,07,00,40,12.80
2006,07,07,00,41,12.80
2006,07,07,00,42,12.70
2006,07,07,00,43,12.70
2006,07,07,00,44,12.70
2006,07,07,00,45,12.70
2006,07,07,00,46,12.60
2006,07,07,00,47,12.60
2006,07,07,00,48,12.60
2006,07,07,00,49,12.50
2006,07,07,00,50,12.50
2006,07,07,00,51,12.50
2006,07,07,00,52,12.50
2006,07,07,00,53,12.50
2006,07,07,00,54,12.50
2006,07,07,00,55,12.40
2006,07,07,00,56,12.40
2006,07,07,00,57,12.40
2006,07,07,00,58,12.30
2006,07,07,00,59,12.30
2006,07,07,01,00,12.30
2006,07,07,01,01,12.30
2006,07,07,01,02,12.30
2006,07,07,01,03,12.30
2006,07,07,01,04,12.30
2006,07,07,01,05,12.30
2006,07,07,01,06,12.30
2006,07,07,01,07,12.30
2006,07,07,01,08,12.20
2006,07,07,01,09,12.20
2006,07,07,01,10,12.10
2006,07,07,01,11,12.00
2006,07,07,01,12,12.00
2006,07,07,01,13,12.00
2006,07,07,01,14,11.80
2006,07,07,01,15,11.80
2006,07,07,01,16,11.80
2006,07,07,01,17,11.70
2006,07,07,01,18,11.70
2006,07,07,01,19,11.60
2006,07,07,01,20,11.60
2006,07,07,01,21,11.60
2006,07,07,01,22,11.50
2006,07,07,01,23,11.40
2006,07,07,01,24,11.40
2006,07,07,01,25,11.40
2006,07,07,01,26,11.40
2006,07,07,01,27,11.30
2006,07,07,01,28,11.30
2006,07,07,01,29,11.30
2006,07,07,01,30,11.20
2006,07,07,01,31,11.20
2006,07,07,01,32,11.10
2006,07,07,01,33,11.10
2006,07,07,01,34,11.10
2006,07,07,01,35,11.10
2006,07,07,01,36,10.90
2006,07,07,01,37,10.90
2006,07,07,01,38,10.90
2006,07,07,01,39,10.90
2006,07,07,01,40,10.90
2006,07,07,01,41,10.90
2006,07,07,01,42,10.90
2006,07,07,01,43,10.80
2006,07,07,01,44,10.80
2006,07,07,01,45,10.60
2006,07,07,01,46,10.50
2006,07,07,01,47,10.40
2006,07,07,01,48,10.30
2006,07,07,01,49,10.30
2006,07,07,01,50,10.20
2006,07,07,01,51,10.20
2006,07,07,01,52,10.20
2006,07,07,01,53,10.10
2006,07,07,01,54,10.10
2006,07,07,01,55,10.10
2006,07,07,01,56,10.10
2006,07,07,01,57,10.10
2006,07,07,01,58,10.10
2006,07,07,01,59,10.10
2006,07,07,02,00,10.10
2006,07,07,02,01,10.10
2006,07,07,02,02,10.10
2006,07,07,02,03,10.10
2006,07,07,02,04,10.20
2006,07,07,02,05,10.20
2006,07,07,02,06,10.30
2006,07,07,02,07,10.40
2006,07,07,02,08,10.40
2006,07,07,02,09,10.40
2006,07,07,02,10,10.40
2006,07,07,02,11,10.50
2006,07,07,02,12,10.60
2006,07,07,02,13,10.70
2006,07,07,02,14,10.70
2006,07,07,02,15,10.70
2006,07,07,02,16,10.60
2006,07,07,02,17,10.60
2006,07,07,02,18,10.60
2006,07,07,02,19,10.60
2006,07,07,02,20,10.40
2006,07,07,02,21,10.40
2006,07,07,02,22,10.40
2006,07,07,02,23,10.30
2006,07,07,02,24,10.30
2006,07,07,02,25,10.20
2006,07,07,02,26,10.20
2006,07,07,02,27,10.20
2006,07,07,02,28,10.10
2006,07,07,02,29,10.10
2006,07,07,02,30,10.10
2006,07,07,02,31,10.10
2006,07,07,02,32,10.10
2006,07,07,02,33,10.10
2006,07,07,02,34,10.10
2006,07,07,02,35,10.10
2006,07,07,02,36,10.10
2006,07,07,02,37,10.10
2006,07,07,02,38,10.10
2006,07,07,02,39,10.20
2006,07,07,02,40,10.30
2006,07,07,02,41,10.30
2006,07,07,02,42,10.40
2006,07,07,02,43,10.40
2006,07,07,02,44,10.40
2006,07,07,02,45,10.50
2006,07,07,02,46,10.60
2006,07,07,02,47,10.60
2006,07,07,02,48,10.60
2006,07,07,02,49,10.60
2006,07,07,02,50,10.50
2006,07,07,02,51,10.40
2006,07,07,02,52,10.30
2006,07,07,02,53,10.20
2006,07,07,02,54,9.90
2006,07,07,02,55,9.80
2006,07,07,02,56,9.70
2006,07,07,02,57,9.60
2006,07,07,02,58,9.50
2006,07,07,02,59,9.40
2006,07,07,03,00,9.40
2006,07,07,03,01,9.40
2006,07,07,03,02,9.30
2006,07,07,03,03,9.30
2006,07,07,03,04,9.20
2006,07,07,03,05,9.30
2006,07,07,03,06,9.30
2006,07,07,03,07,9.40
2006,07,07,03,08,9.40
2006,07,07,03,09,9.50
2006,07,07,03,10,9.60
2006,07,07,03,11,9.60
2006,07,07,03,12,9.70
2006,07,07,03,13,9.70
2006,07,07,03,14,9.70
2006,07,07,03,15,9.70
2006,07,07,03,16,9.70
2006,07,07,03,17,9.70
2006,07,07,03,18,9.70
2006,07,07,03,19,9.70
2006,07,07,03,20,9.70
2006,07,07,03,21,9.70
2006,07,07,03,22,9.70
2006,07,07,03,23,9.60
2006,07,07,03,24,9.60
2006,07,07,03,25,9.60
2006,07,07,03,26,9.50
2006,07,07,03,27,9.50
2006,07,07,03,28,9.50
2006,07,07,03,29,9.40
2006,07,07,03,30,9.40
2006,07,07,03,31,9.40
2006,07,07,03,32,9.40
2006,07,07,03,33,9.40
2006,07,07,03,34,9.30
2006,07,07,03,35,9.30
2006,07,07,03,36,9.30
2006,07,07,03,37,9.30
2006,07,07,03,38,9.30
2006,07,07,03,39,9.30
2006,07,07,03,40,9.30
2006,07,07,03,41,9.20
2006,07,07,03,42,9.20
2006,07,07,03,43,9.20
2006,07,07,03,44,9.20
2006,07,07,03,45,9.20
2006,07,07,03,46,9.10
2006,07,07,03,47,9.10
2006,07,07,03,48,9.00
2006,07,07,03,49,8.90
2006,07,07,03,50,8.90
2006,07,07,03,51,8.90
2006,07,07,03,52,8.80
2006,07,07,03,53,8.80
2006,07,07,03,54,8.80
2006,07,07,03,55,8.80
2006,07,07,03,56,8.80
2006,07,07,03,57,8.80
2006,07,07,03,58,8.80
2006,07,07,03,59,8.80
2006,07,07,04,00,8.80
2006,07,07,04,01,8.70
2006,07,07,04,02,8.70
2006,07,07,04,03,8.70
2006,07,07,04,04,8.70
2006,07,07,04,05,8.70
2006,07,07,04,06,8.70
2006,07,07,04,07,8.70
2006,07,07,04,08,8.60
2006,07,07,04,09,8.60
2006,07,07,04,10,8.60
2006,07,07,04,11,8.50
2006,07,07,04,12,8.50
2006,07,07,04,13,8.40
2006,07,07,04,14,8.40
2006,07,07,04,15,8.40
2006,07,07,04,16,8.30
2006,07,07,04,17,8.30
2006,07,07,04,18,8.30
2006,07,07,04,19,8.20
2006,07,07,04,20,8.20
2006,07,07,04,21,8.20
2006,07,07,04,22,8.20
2006,07,07,04,23,8.20
2006,07,07,04,24,8.20
2006,07,07,04,25,8.20
2006,07,07,04,26,8.20
2006,07,07,04,27,8.20
2006,07,07,04,28,8.20
2006,07,07,04,29,8.30
2006,07,07,04,30,8.30
2006,07,07,04,31,8.40
2006,07,07,04,32,8.40
2006,07,07,04,33,8.50
2006,07,07,04,34,8.50
2006,07,07,04,35,8.50
2006,07,07,04,36,8.50
2006,07,07,04,37,8.50
2006,07,07,04,38,8.50
2006,07,07,04,39,8.50
2006,07,07,04,40,8.50
2006,07,07,04,41,8.40
2006,07,07,04,42,8.40
2006,07,07,04,43,8.40
2006,07,07,04,44,8.40
2006,07,07,04,45,8.40
2006,07,07,04,46,8.40
2006,07,07,04,47,8.50
2006,07,07,04,48,8.50
2006,07,07,04,49,8.50
2006,07,07,04,50,8.60
2006,07,07,04,51,8.60
2006,07,07,04,52,8.70
2006,07,07,04,53,8.70
2006,07,07,04,54,8.70
2006,07,07,04,55,8.70
2006,07,07,04,56,8.60
2006,07,07,04,57,8.50
2006,07,07,04,58,8.50
2006,07,07,04,59,8.50
2006,07,07,05,00,8.40
2006,07,07,05,01,8.30
2006,07,07,05,02,8.20
2006,07,07,05,03,8.10
2006,07,07,05,04,8.00
2006,07,07,05,05,8.00
2006,07,07,05,06,7.90
2006,07,07,05,07,7.90
2006,07,07,05,08,7.90
2006,07,07,05,09,7.90
2006,07,07,05,10,7.90
2006,07,07,05,11,7.90
2006,07,07,05,12,7.90
2006,07,07,05,13,7.90
2006,07,07,05,14,7.90
2006,07,07,05,15,7.90
2006,07,07,05,16,7.90
2006,07,07,05,17,7.90
2006,07,07,05,18,7.90
2006,07,07,05,19,7.90
2006,07,07,05,20,7.90
2006,07,07,05,21,8.00
2006,07,07,05,22,8.00
2006,07,07,05,23,8.00
2006,07,07,05,24,8.00
2006,07,07,05,25,8.10
2006,07,07,05,26,8.10
2006,07,07,05,27,8.10
2006,07,07,05,28,8.10
2006,07,07,05,29,8.20
2006,07,07,05,30,8.20
2006,07,07,05,31,8.20
2006,07,07,05,32,8.20
2006,07,07,05,33,8.20
2006,07,07,05,34,8.20
2006,07,07,05,35,8.20
2006,07,07,05,36,8.30
2006,07,07,05,37,8.30
2006,07,07,05,38,8.30
2006,07,07,05,39,8.40
2006,07,07,05,40,8.40
2006,07,07,05,41,8.40
2006,07,07,05,42,8.40
2006,07,07,05,43,8.40
2006,07,07,05,44,8.30
2006,07,07,05,45,8.30
2006,07,07,05,46,8.20
2006,07,07,05,47,8.20
2006,07,07,05,48,8.20
2006,07,07,05,49,8.20
2006,07,07,05,50,8.20
2006,07,07,05,51,8.20
2006,07,07,05,52,8.20
2006,07,07,05,53,8.20
2006,07,07,05,54,8.20
2006,07,07,05,55,8.20
2006,07,07,05,56,8.20
2006,07,07,05,57,8.30
2006,07,07,05,58,8.30
2006,07,07,05,59,8.30
2006,07,07,06,00,8.40
2006,07,07,06,01,8.40
2006,07,07,06,02,8.40
2006,07,07,06,03,8.50
2006,07,07,06,04,8.50
2006,07,07,06,05,8.50
2006,07,07,06,06,8.50
2006,07,07,06,07,8.50
2006,07,07,06,08,8.40
2006,07,07,06,09,8.40
2006,07,07,06,10,8.40
2006,07,07,06,11,8.30
2006,07,07,06,12,8.30
2006,07,07,06,13,8.30
2006,07,07,06,14,8.30
2006,07,07,06,15,8.30
2006,07,07,06,16,8.30
2006,07,07,06,17,8.30
2006,07,07,06,18,8.30
2006,07,07,06,19,8.30
2006,07,07,06,20,8.30
2006,07,07,06,21,8.30
2006,07,07,06,22,8.40
2006,07,07,06,23,8.40
2006,07,07,06,24,8.40
2006,07,07,06,25,8.40
2006,07,07,06,26,8.40
2006,07,07,06,27,8.40
2006,07,07,06,28,8.40
2006,07,07,06,29,8.40
2006,07,07,06,30,8.50
2006,07,07,06,31,8.50
2006,07,07,06,32,8.50
2006,07,07,06,33,8.50
2006,07,07,06,34,8.50
2006,07,07,06,35,8.60
2006,07,07,06,36,8.60
2006,07,07,06,37,8.60
2006,07,07,06,38,8.70
2006,07,07,06,39,8.70
2006,07,07,06,40,8.70
2006,07,07,06,41,8.80
2006,07,07,06,42,8.80
2006,07,07,06,43,8.90
2006,07,07,06,44,8.90
2006,07,07,06,45,9.00
2006,07,07,06,46,9.00
2006,07,07,06,47,9.00
2006,07,07,06,48,9.10
2006,07,07,06,49,9.10
2006,07,07,06,50,9.10
2006,07,07,06,51,9.20
2006,07,07,06,52,9.20
2006,07,07,06,53,9.20
2006,07,07,06,54,9.20
2006,07,07,06,55,9.20
2006,07,07,06,56,9.20
2006,07,07,06,57,9.30
2006,07,07,06,58,9.30
2006,07,07,06,59,9.30
2006,07,07,07,00,9.40
2006,07,07,07,01,9.40
2006,07,07,07,02,9.40
2006,07,07,07,03,9.50
2006,07,07,07,04,9.50
2006,07,07,07,05,9.60
2006,07,07,07,06,9.60
2006,07,07,07,07,9.70
2006,07,07,07,08,9.70
2006,07,07,07,09,9.70
2006,07,07,07,10,9.80
2006,07,07,07,11,9.80
2006,07,07,07,12,9.90
2006,07,07,07,13,9.90
2006,07,07,07,14,10.00
2006,07,07,07,15,10.10
2006,07,07,07,16,10.10
2006,07,07,07,17,10.20
2006,07,07,07,18,10.20
2006,07,07,07,19,10.30
2006,07,07,07,20,10.40
2006,07,07,07,21,10.50
2006,07,07,07,22,10.60
2006,07,07,07,23,10.70
2006,07,07,07,24,10.80
2006,07,07,07,25,10.90
2006,07,07,07,26,10.90
2006,07,07,07,27,11.00
2006,07,07,07,28,11.10
2006,07,07,07,29,11.10
2006,07,07,07,30,11.10
2006,07,07,07,31,11.30
2006,07,07,07,32,11.40
2006,07,07,07,33,11.40
2006,07,07,07,34,11.40
2006,07,07,07,35,11.50
2006,07,07,07,36,11.60
2006,07,07,07,37,11.60
2006,07,07,07,38,11.60
2006,07,07,07,39,11.60
2006,07,07,07,40,11.60
2006,07,07,07,41,11.70
2006,07,07,07,42,11.70
2006,07,07,07,43,11.70
2006,07,07,07,44,11.70
2006,07,07,07,45,11.70
2006,07,07,07,46,11.70
2006,07,07,07,47,11.70
2006,07,07,07,48,11.70
2006,07,07,07,49,11.70
2006,07,07,07,50,11.80
2006,07,07,07,51,11.80
2006,07,07,07,52,11.80
2006,07,07,07,53,11.80
2006,07,07,07,54,11.80
2006,07,07,07,55,11.80
2006,07,07,07,56,11.80
2006,07,07,07,57,11.80
2006,07,07,07,58,11.80
2006,07,07,07,59,11.80
2006,07,07,08,00,11.80
2006,07,07,08,01,11.80
2006,07,07,08,02,11.90
2006,07,07,08,03,11.90
2006,07,07,08,04,11.90
2006,07,07,08,05,11.90
2006,07,07,08,06,11.90
2006,07,07,08,07,11.90
2006,07,07,08,08,12.00
2006,07,07,08,09,12.00
2006,07,07,08,10,12.00
2006,07,07,08,11,12.00
2006,07,07,08,12,12.10
2006,07,07,08,13,12.10
2006,07,07,08,14,12.20
2006,07,07,08,15,12.30
2006,07,07,08,16,12.30
2006,07,07,08,17,12.40
2006,07,07,08,18,12.50
2006,07,07,08,19,12.60
2006,07,07,08,20,12.70
2006,07,07,08,21,12.80
2006,07,07,08,22,12.90
2006,07,07,08,23,13.00
2006,07,07,08,24,13.20
2006,07,07,08,25,13.30
2006,07,07,08,26,13.40
2006,07,07,08,27,13.50
2006,07,07,08,28,13.50
2006,07,07,08,29,13.60
2006,07,07,08,30,13.70
2006,07,07,08,31,13.80
2006,07,07,08,32,13.90
2006,07,07,08,33,14.10
2006,07,07,08,34,14.30
2006,07,07,08,35,14.50
2006,07,07,08,36,14.50
2006,07,07,08,37,14.60
2006,07,07,08,38,14.80
2006,07,07,08,39,14.90
2006,07,07,08,40,15.00
2006,07,07,08,41,15.20
2006,07,07,08,42,15.30
2006,07,07,08,43,15.50
2006,07,07,08,44,15.60
2006,07,07,08,45,15.60
2006,07,07,08,46,15.60
2006,07,07,08,47,15.60
2006,07,07,08,48,15.60
2006,07,07,08,49,15.60
2006,07,07,08,50,15.60
2006,07,07,08,51,15.70
2006,07,07,08,52,15.70
2006,07,07,08,53,15.80
2006,07,07,08,54,15.90
2006,07,07,08,55,16.10
2006,07,07,08,56,16.10
2006,07,07,08,57,16.20
2006,07,07,08,58,16.20
2006,07,07,08,59,16.30
2006,07,07,09,00,16.40
2006,07,07,09,01,16.50
2006,07,07,09,02,16.60
2006,07,07,09,03,16.70
2006,07,07,09,04,16.70
2006,07,07,09,05,16.80
2006,07,07,09,06,16.70
2006,07,07,09,07,16.70
2006,07,07,09,08,16.80
2006,07,07,09,09,16.80
2006,07,07,09,10,16.80
2006,07,07,09,11,16.80
2006,07,07,09,12,16.80
2006,07,07,09,13,16.70
2006,07,07,09,14,16.80
2006,07,07,09,15,16.90
2006,07,07,09,16,16.90
2006,07,07,09,17,16.90
2006,07,07,09,18,16.90
2006,07,07,09,19,17.00
2006,07,07,09,20,17.00
2006,07,07,09,21,17.00
2006,07,07,09,22,17.00
2006,07,07,09,23,17.00
2006,07,07,09,24,17.00
2006,07,07,09,25,17.10
2006,07,07,09,26,17.20
2006,07,07,09,27,17.30
2006,07,07,09,28,17.40
2006,07,07,09,29,17.40
2006,07,07,09,30,17.40
2006,07,07,09,31,17.40
2006,07,07,09,32,17.40
2006,07,07,09,33,17.40
2006,07,07,09,34,17.40
2006,07,07,09,35,17.40
2006,07,07,09,36,17.60
2006,07,07,09,37,17.70
2006,07,07,09,38,17.70
2006,07,07,09,39,17.70
2006,07,07,09,40,17.60
2006,07,07,09,41,17.70
2006,07,07,09,42,17.80
2006,07,07,09,43,17.90
2006,07,07,09,44,17.80
2006,07,07,09,45,17.80
2006,07,07,09,46,17.70
2006,07,07,09,47,17.70
2006,07,07,09,48,17.70
2006,07,07,09,49,17.60
2006,07,07,09,50,17.50
2006,07,07,09,51,17.40
2006,07,07,09,52,17.30
2006,07,07,09,53,17.40
2006,07,07,09,54,17.50
2006,07,07,09,55,17.50
2006,07,07,09,56,17.50
2006,07,07,09,57,17.50
2006,07,07,09,58,17.60
2006,07,07,09,59,17.60
2006,07,07,10,00,17.60
2006,07,07,10,01,17.70
2006,07,07,10,02,17.60
2006,07,07,10,03,17.60
2006,07,07,10,04,17.60
2006,07,07,10,05,17.70
2006,07,07,10,06,17.60
2006,07,07,10,07,17.60
2006,07,07,10,08,17.60
2006,07,07,10,09,17.60
2006,07,07,10,10,17.50
2006,07,07,10,11,17.50
2006,07,07,10,12,17.50
2006,07,07,10,13,17.50
2006,07,07,10,14,17.50
2006,07,07,10,15,17.70
2006,07,07,10,16,17.80
2006,07,07,10,17,17.90
2006,07,07,10,18,18.10
2006,07,07,10,19,18.10
2006,07,07,10,20,18.20
2006,07,07,10,21,18.20
2006,07,07,10,22,18.20
2006,07,07,10,23,18.20
2006,07,07,10,24,18.20
2006,07,07,10,25,18.20
2006,07,07,10,26,18.30
2006,07,07,10,27,18.40
2006,07,07,10,28,18.60
2006,07,07,10,29,18.60
2006,07,07,10,30,18.50
2006,07,07,10,31,18.20
2006,07,07,10,32,18.10
2006,07,07,10,33,18.10
2006,07,07,10,34,18.20
2006,07,07,10,35,18.00
2006,07,07,10,36,17.90
2006,07,07,10,37,17.80
2006,07,07,10,38,17.80
2006,07,07,10,39,17.80
2006,07,07,10,40,17.80
2006,07,07,10,41,17.80
2006,07,07,10,42,17.80
2006,07,07,10,43,17.80
2006,07,07,10,44,17.70
2006,07,07,10,45,17.70
2006,07,07,10,46,17.80
2006,07,07,10,47,17.90
2006,07,07,10,48,17.90
2006,07,07,10,49,18.00
2006,07,07,10,50,18.10
2006,07,07,10,51,18.20
2006,07,07,10,52,18.20
2006,07,07,10,53,18.20
2006,07,07,10,54,18.20
2006,07,07,10,55,18.20
2006,07,07,10,56,18.20
2006,07,07,10,57,18.30
2006,07,07,10,58,18.30
2006,07,07,10,59,18.40
2006,07,07,11,00,18.50
2006,07,07,11,01,18.60
2006,07,07,11,02,18.70
2006,07,07,11,03,18.80
2006,07,07,11,04,19.00
2006,07,07,11,05,19.10
2006,07,07,11,06,19.00
2006,07,07,11,07,18.90
2006,07,07,11,08,18.90
2006,07,07,11,09,18.90
2006,07,07,11,10,18.80
2006,07,07,11,11,18.50
2006,07,07,11,12,18.50
2006,07,07,11,13,18.40
2006,07,07,11,14,18.50
2006,07,07,11,15,18.50
2006,07,07,11,16,18.30
2006,07,07,11,17,18.20
2006,07,07,11,18,18.20
2006,07,07,11,19,18.20
2006,07,07,11,20,18.40
2006,07,07,11,21,18.60
2006,07,07,11,22,18.90
2006,07,07,11,23,18.70
2006,07,07,11,24,18.70
2006,07,07,11,25,18.90
2006,07,07,11,26,18.90
2006,07,07,11,27,18.90
2006,07,07,11,28,18.80
2006,07,07,11,29,18.80
2006,07,07,11,30,18.80
2006,07,07,11,31,18.80
2006,07,07,11,32,18.80
2006,07,07,11,33,18.60
2006,07,07,11,34,18.70
2006,07,07,11,35,18.90
2006,07,07,11,36,19.00
2006,07,07,11,37,19.00
2006,07,07,11,38,19.10
2006,07,07,11,39,19.10
2006,07,07,11,40,19.00
2006,07,07,11,41,19.00
2006,07,07,11,42,19.10
2006,07,07,11,43,19.10
2006,07,07,11,44,19.10
2006,07,07,11,45,19.00
2006,07,07,11,46,19.10
2006,07,07,11,47,19.00
2006,07,07,11,48,18.80
2006,07,07,11,49,18.70
2006,07,07,11,50,18.60
2006,07,07,11,51,18.50
2006,07,07,11,52,18.50
2006,07,07,11,53,18.60
2006,07,07,11,54,18.80
2006,07,07,11,55,18.80
2006,07,07,11,56,19.00
2006,07,07,11,57,19.10
2006,07,07,11,58,19.10
2006,07,07,11,59,19.20
2006,07,07,12,00,19.20
2006,07,07,12,01,19.20
2006,07,07,12,02,19.10
2006,07,07,12,03,19.10
2006,07,07,12,04,19.20
2006,07,07,12,05,19.30
2006,07,07,12,06,19.20
2006,07,07,12,07,19.10
2006,07,07,12,08,19.10
2006,07,07,12,09,19.10
2006,07,07,12,10,19.10
2006,07,07,12,11,19.10
2006,07,07,12,12,19.00
2006,07,07,12,13,19.00
2006,07,07,12,14,19.10
2006,07,07,12,15,19.10
2006,07,07,12,16,19.10
2006,07,07,12,17,19.10
2006,07,07,12,18,19.10
2006,07,07,12,19,19.30
2006,07,07,12,20,19.30
2006,07,07,12,21,19.50
2006,07,07,12,22,19.60
2006,07,07,12,23,19.40
2006,07,07,12,24,19.20
2006,07,07,12,25,19.20
2006,07,07,12,26,19.30
2006,07,07,12,27,19.40
2006,07,07,12,28,19.50
2006,07,07,12,29,19.70
2006,07,07,12,30,19.80
2006,07,07,12,31,19.90
2006,07,07,12,32,20.00
2006,07,07,12,33,20.00
2006,07,07,12,34,19.90
2006,07,07,12,35,19.80
2006,07,07,12,36,19.60
2006,07,07,12,37,19.30
2006,07,07,12,38,19.20
2006,07,07,12,39,19.20
2006,07,07,12,40,19.40
2006,07,07,12,41,19.60
2006,07,07,12,42,19.70
2006,07,07,12,43,19.80
2006,07,07,12,44,19.80
2006,07,07,12,45,19.80
2006,07,07,12,46,19.80
2006,07,07,12,47,19.80
2006,07,07,12,48,19.80
2006,07,07,12,49,19.80
2006,07,07,12,50,19.80
2006,07,07,12,51,19.80
2006,07,07,12,52,19.80
2006,07,07,12,53,19.80
2006,07,07,12,54,19.70
2006,07,07,12,55,19.50
2006,07,07,12,56,19.50
2006,07,07,12,57,19.50
2006,07,07,12,58,19.60
2006,07,07,12,59,19.60
2006,07,07,13,00,19.60
2006,07,07,13,01,19.70
2006,07,07,13,02,19.90
2006,07,07,13,03,19.90
2006,07,07,13,04,19.90
2006,07,07,13,05,20.00
2006,07,07,13,06,20.10
2006,07,07,13,07,20.00
2006,07,07,13,08,19.80
2006,07,07,13,09,19.70
2006,07,07,13,10,19.60
2006,07,07,13,11,19.70
2006,07,07,13,12,19.80
2006,07,07,13,13,19.90
2006,07,07,13,14,19.90
2006,07,07,13,15,19.80
2006,07,07,13,16,19.70
2006,07,07,13,17,19.70
2006,07,07,13,18,19.80
2006,07,07,13,19,19.90
2006,07,07,13,20,19.90
2006,07,07,13,21,19.90
2006,07,07,13,22,19.90
2006,07,07,13,23,19.90
2006,07,07,13,24,20.00
2006,07,07,13,25,20.20
2006,07,07,13,26,20.30
2006,07,07,13,27,20.30
2006,07,07,13,28,20.20
2006,07,07,13,29,20.10
2006,07,07,13,30,20.10
2006,07,07,13,31,20.20
2006,07,07,13,32,20.20
2006,07,07,13,33,20.10
2006,07,07,13,34,20.10
2006,07,07,13,35,20.10
2006,07,07,13,36,20.10
2006,07,07,13,37,20.20
2006,07,07,13,38,20.20
2006,07,07,13,39,20.20
2006,07,07,13,40,20.30
2006,07,07,13,41,20.40
2006,07,07,13,42,20.30
2006,07,07,13,43,20.30
2006,07,07,13,44,20.40
2006,07,07,13,45,20.40
2006,07,07,13,46,20.40
2006,07,07,13,47,20.40
2006,07,07,13,48,20.20
2006,07,07,13,49,20.40
2006,07,07,13,50,20.50
2006,07,07,13,51,20.50
2006,07,07,13,52,20.50
2006,07,07,13,53,20.60
2006,07,07,13,54,20.60
2006,07,07,13,55,20.50
2006,07,07,13,56,20.50
2006,07,07,13,57,20.60
2006,07,07,13,58,20.80
2006,07,07,13,59,20.80
2006,07,07,14,00,20.60
2006,07,07,14,01,20.60
2006,07,07,14,02,20.30
2006,07,07,14,03,20.20
2006,07,07,14,04,20.20
2006,07,07,14,05,20.20
2006,07,07,14,06,20.20
2006,07,07,14,07,20.20
2006,07,07,14,08,20.20
2006,07,07,14,09,20.20
2006,07,07,14,10,20.20
2006,07,07,14,11,20.20
2006,07,07,14,12,20.20
2006,07,07,14,13,20.20
2006,07,07,14,14,20.20
2006,07,07,14,15,20.10
2006,07,07,14,16,19.90
2006,07,07,14,17,19.90
2006,07,07,14,18,19.90
2006,07,07,14,19,20.00
2006,07,07,14,20,20.30
2006,07,07,14,21,20.50
2006,07,07,14,22,20.60
2006,07,07,14,23,20.60
2006,07,07,14,24,20.60
2006,07,07,14,25,20.60
2006,07,07,14,26,20.60
2006,07,07,14,27,20.60
2006,07,07,14,28,20.50
2006,07,07,14,29,20.50
2006,07,07,14,30,20.70
2006,07,07,14,31,20.80
2006,07,07,14,32,20.80
2006,07,07,14,33,20.80
2006,07,07,14,34,20.90
2006,07,07,14,35,20.90
2006,07,07,14,36,20.90
2006,07,07,14,37,20.90
2006,07,07,14,38,20.80
2006,07,07,14,39,20.90
2006,07,07,14,40,21.00
2006,07,07,14,41,20.90
2006,07,07,14,42,20.60
2006,07,07,14,43,20.50
2006,07,07,14,44,20.40
2006,07,07,14,45,20.50
2006,07,07,14,46,20.40
2006,07,07,14,47,20.60
2006,07,07,14,48,20.60
2006,07,07,14,49,20.70
2006,07,07,14,50,20.70
2006,07,07,14,51,20.80
2006,07,07,14,52,20.80
2006,07,07,14,53,20.70
2006,07,07,14,54,20.50
2006,07,07,14,55,20.40
2006,07,07,14,56,20.50
2006,07,07,14,57,20.60
2006,07,07,14,58,20.50
2006,07,07,14,59,20.50
2006,07,07,15,00,20.30
2006,07,07,15,01,20.40
2006,07,07,15,02,20.50
2006,07,07,15,03,20.60
2006,07,07,15,04,20.50
2006,07,07,15,05,20.50
2006,07,07,15,06,20.30
2006,07,07,15,07,20.30
2006,07,07,15,08,20.20
2006,07,07,15,09,20.30
2006,07,07,15,10,20.30
2006,07,07,15,11,20.20
2006,07,07,15,12,20.40
2006,07,07,15,13,20.50
2006,07,07,15,14,20.50
2006,07,07,15,15,20.50
2006,07,07,15,16,20.50
2006,07,07,15,17,20.50
2006,07,07,15,18,20.30
2006,07,07,15,19,20.20
2006,07,07,15,20,20.20
2006,07,07,15,21,20.20
2006,07,07,15,22,20.30
2006,07,07,15,23,20.40
2006,07,07,15,24,20.40
2006,07,07,15,25,20.40
2006,07,07,15,26,20.30
2006,07,07,15,27,20.30
2006,07,07,15,28,20.20
2006,07,07,15,29,20.20
2006,07,07,15,30,20.30
2006,07,07,15,31,20.40
2006,07,07,15,32,20.40
2006,07,07,15,33,20.30
2006,07,07,15,34,20.40
2006,07,07,15,35,20.60
2006,07,07,15,36,20.70
2006,07,07,15,37,20.60
2006,07,07,15,38,20.50
2006,07,07,15,39,20.60
2006,07,07,15,40,20.70
2006,07,07,15,41,20.80
2006,07,07,15,42,20.70
2006,07,07,15,43,20.70
2006,07,07,15,44,20.70
2006,07,07,15,45,20.60
2006,07,07,15,46,20.40
2006,07,07,15,47,20.40
2006,07,07,15,48,20.60
2006,07,07,15,49,20.80
2006,07,07,15,50,20.90
2006,07,07,15,51,20.90
2006,07,07,15,52,20.70
2006,07,07,15,53,20.60
2006,07,07,15,54,20.60
2006,07,07,15,55,20.50
2006,07,07,15,56,20.30
2006,07,07,15,57,20.30
2006,07,07,15,58,20.30
2006,07,07,15,59,20.20
2006,07,07,16,00,20.10
2006,07,07,16,01,20.10
2006,07,07,16,02,20.20
2006,07,07,16,03,20.20
2006,07,07,16,04,20.20
2006,07,07,16,05,20.40
2006,07,07,16,06,20.30
2006,07,07,16,07,20.40
2006,07,07,16,08,20.50
2006,07,07,16,09,20.50
2006,07,07,16,10,20.60
2006,07,07,16,11,20.80
2006,07,07,16,12,20.70
2006,07,07,16,13,20.60
2006,07,07,16,14,20.70
2006,07,07,16,15,20.80
2006,07,07,16,16,21.00
2006,07,07,16,17,21.00
2006,07,07,16,18,20.90
2006,07,07,16,19,20.90
2006,07,07,16,20,20.90
2006,07,07,16,21,20.90
2006,07,07,16,22,20.90
2006,07,07,16,23,21.00
2006,07,07,16,24,21.00
2006,07,07,16,25,21.00
2006,07,07,16,26,20.90
2006,07,07,16,27,21.00
2006,07,07,16,28,21.00
2006,07,07,16,29,21.00
2006,07,07,16,30,21.00
2006,07,07,16,31,21.10
2006,07,07,16,32,21.20
2006,07,07,16,33,21.20
2006,07,07,16,34,21.10
2006,07,07,16,35,21.10
2006,07,07,16,36,21.10
2006,07,07,16,37,21.00
2006,07,07,16,38,21.10
2006,07,07,16,39,21.10
2006,07,07,16,40,21.20
2006,07,07,16,41,21.10
2006,07,07,16,42,20.90
2006,07,07,16,43,21.00
2006,07,07,16,44,20.90
2006,07,07,16,45,20.90
2006,07,07,16,46,20.90
2006,07,07,16,47,20.90
2006,07,07,16,48,21.00
2006,07,07,16,49,21.10
2006,07,07,16,50,21.20
2006,07,07,16,51,21.30
2006,07,07,16,52,21.30
2006,07,07,16,53,21.40
2006,07,07,16,54,21.40
2006,07,07,16,55,21.40
2006,07,07,16,56,21.30
2006,07,07,16,57,21.30
2006,07,07,16,58,21.10
2006,07,07,16,59,21.10
2006,07,07,17,00,21.20
2006,07,07,17,01,21.30
2006,07,07,17,02,21.50
2006,07,07,17,03,21.60
2006,07,07,17,04,21.40
2006,07,07,17,05,21.40
2006,07,07,17,06,21.40
2006,07,07,17,07,21.30
2006,07,07,17,08,21.30
2006,07,07,17,09,21.30
2006,07,07,17,10,21.30
2006,07,07,17,11,21.30
2006,07,07,17,12,21.20
2006,07,07,17,13,21.30
2006,07,07,17,14,21.30
2006,07,07,17,15,21.20
2006,07,07,17,16,21.10
2006,07,07,17,17,21.10
2006,07,07,17,18,21.00
2006,07,07,17,19,21.00
2006,07,07,17,20,21.10
2006,07,07,17,21,21.20
2006,07,07,17,22,21.30
2006,07,07,17,23,21.30
2006,07,07,17,24,21.20
2006,07,07,17,25,21.20
2006,07,07,17,26,21.20
2006,07,07,17,27,21.20
2006,07,07,17,28,21.20
2006,07,07,17,29,21.30
2006,07,07,17,30,21.30